SHIYAN 30-03

operational
NORAD ID: 68139 Int'l Des: 2026-048A Country: PRC
LEOCIRCULAR
追跡 地上

SHIYAN 30-03について

説明を読み込み中...

リアルタイム位置

3D地球を読み込み中...

次回通過

高度履歴

Altitude vs Time

uPlot chart will show altitude changes over time

軌道要素

1 68139U 26048A 26072.52265240 .00000644 00000-0 63660-4 0 9999
2 68139 34.9995 121.0957 0005037 307.8591 52.1658 14.92832883 73
Epoch: Mar 13, 2026 • Age: 30 hours

現在のステータス

高度 588.8 km
速度 7.57 km/s
衛星直下点 -18.60°S, 174.47°W
タイプ other

大規模コンステレーション

Loading constellations...